Home   Weather   Newmarket   Past weeks

Flag for Canada Past Weather in Newmarket, Ontario, Canada — Yesterday and Last 2 Weeks

Now
37 °F

Dense fog.


Feels Like: 35 °F
Forecast: N/A
Wind: 3 mph from Southeast

Location: Borden

Current Time: Jan 22, 2017 at 3:47:29 pm

Latest Report: Jan 22, 2017 at 3:00 pm


Visibility: 0 mi

Pressure: 29.73 "Hg

Humidity: 100%

Dew Point: 37 °F

Location of NewmarketLocation

Past Weather in Newmarket — Graph

°F

Newmarket Temperature Yesterday

Maximum temperature yesterday: 39 °F (at 3:56 pm)
Minimum temperature yesterday: 34 °F (at 12:00 am)
Average temperature yesterday: 36 °F

High & Low Weather Summary for the Past Weeks

 TemperatureHumidityPressure
High43 °F (Jan 10, 10:33 pm)100% (Jan 10, 3:35 pm)30.81 "Hg (Jan 10, 3:35 pm)
Low1 °F (Jan 8, 9:00 pm)56% (Jan 16, 4:00 pm)29.35 "Hg (Jan 10, 11:18 pm)
Average28 °F87%30.06 "Hg
* Reported Jan 7 2:00 pm — Jan 22 2:00 pm, Newmarket, Weather by CustomWeather, © 2017

Note: Actual official high and low records may vary slightly from our data, if they occured in-between our weather recording intervals... More about our weather records

Advertising

Newmarket Weather History for the Previous 24 Hours

Scroll right to see more
 ConditionsComfort  
Time TempWeatherWind HumidityBarometerVisibility
2:00 pm
Sun, Jan 22
37 °FDense fog.5 mph100%29.72 "Hg0 mi
1:00 pm37 °FDense fog.2 mph100%29.74 "Hg0 mi
12:00 pm37 °FDense fog.3 mph100%29.75 "Hg0 mi
11:00 am36 °FDense fog.3 mph100%29.77 "Hg0 mi
10:00 am36 °FDense fog.5 mph100%29.76 "Hg0 mi
9:00 am36 °FDense fog.5 mph100%29.73 "Hg0 mi
8:00 am36 °FDense fog.7 mph100%29.71 "Hg0 mi
7:00 am36 °FDense fog.6 mph100%29.70 "Hg0 mi
6:41 am36 °FDense fog.5 mph100%29.67 "Hg0 mi
6:14 am36 °FDense fog.5 mph100%29.68 "Hg1 mi
6:08 am36 °FDense fog.5 mph100%29.68 "Hg1 mi
6:02 am36 °FLow clouds.3 mph100%29.68 "Hg2 mi
5:44 am36 °FMostly cloudy.3 mph100%29.68 "Hg6 mi
5:00 am36 °FLow clouds.3 mph100%29.70 "Hg8 mi
4:03 am36 °FLow clouds.6 mph100%29.68 "Hg3 mi
3:42 am36 °FLow clouds.7 mph100%29.68 "Hg1 mi
3:22 am36 °FMostly cloudy.6 mph100%29.69 "Hg2 mi
3:04 am36 °FDense fog.7 mph100%29.69 "Hg0 mi
2:00 am37 °FDense fog.7 mph100%29.71 "Hg0 mi
1:00 am37 °FDense fog.7 mph100%29.70 "Hg0 mi
12:00 am37 °FDense fog.5 mph100%29.71 "Hg0 mi
11:00 pm
Sat, Jan 21
37 °FLow clouds.8 mph100%29.72 "Hg1 mi
10:59 pm37 °FLow clouds.8 mph100%29.70 "Hg1 mi
10:00 pm37 °FDense fog.6 mph100%29.72 "Hg0 mi
9:00 pm37 °FDense fog.7 mph100%29.73 "Hg0 mi
8:00 pm37 °FDense fog.5 mph100%29.74 "Hg0 mi
7:00 pm37 °FDense fog.5 mph100%29.72 "Hg0 mi
6:00 pm37 °FDense fog.7 mph100%29.71 "Hg0 mi
5:36 pm37 °FLow clouds.7 mph100%29.69 "Hg0 mi
5:23 pm37 °FLow clouds.6 mph100%29.69 "Hg1 mi
5:00 pm37 °FLow clouds.8 mph100%29.72 "Hg3 mi
4:39 pm37 °FLow clouds.8 mph100%29.70 "Hg6 mi
4:12 pm39 °FPartly sunny.7 mph93%29.70 "Hg6 mi
4:00 pm39 °FLow clouds.7 mph93%29.73 "Hg5 mi
3:56 pm39 °FLow clouds.6 mph93%29.71 "Hg5 mi
3:02 pm37 °FLow clouds.7 mph100%29.70 "Hg8 mi
Weather by CustomWeather, © 2017

See weather overviewHow to use our weather pages